CVA152 MDSD-MDLR

Flight info

Callsign CVA152
Flight time 0h 22m
Altitude 3000
Route PIVAR DCT EMUPO DCT LR450
Aircraft C172/L-SFG/C

Departure

Time 2026-05-07 23:07
Airport Las Américas International Airport (MDSD)

Arrival

Time 2026-05-07 23:29
Airport Casa De Campo International Airport (MDLR)
Time Latitude Longitude Altitude Speed Heading
2026-05-07 23:04 18.44372 -69.67415 51 ft 0 kts 161°
2026-05-07 23:06 18.44273 -69.67379 52 ft 43 kts 158°
2026-05-07 23:06 18.43673 -69.67125 185 ft 80 kts 152°
2026-05-07 23:06 18.43156 -69.66840 392 ft 86 kts 148°
2026-05-07 23:06 18.42837 -69.66603 603 ft 81 kts 143°
2026-05-07 23:07 18.42252 -69.66132 948 ft 79 kts 144°
2026-05-07 23:07 18.41965 -69.65895 1110 ft 79 kts 143°
2026-05-07 23:07 18.41533 -69.65525 1338 ft 82 kts 142°
2026-05-07 23:07 18.41089 -69.65140 1586 ft 83 kts 142°
2026-05-07 23:08 18.40645 -69.64749 1837 ft 83 kts 141°
2026-05-07 23:08 18.40205 -69.64354 2083 ft 83 kts 141°
2026-05-07 23:08 18.39793 -69.63930 2317 ft 84 kts 117°
2026-05-07 23:08 18.39771 -69.63331 2547 ft 83 kts 86°
2026-05-07 23:09 18.39815 -69.62727 2780 ft 83 kts 84°
2026-05-07 23:09 18.39864 -69.62118 3000 ft 85 kts 85°
2026-05-07 23:09 18.39917 -69.61407 3016 ft 108 kts 86°
2026-05-07 23:09 18.39984 -69.60564 3009 ft 121 kts 86°
2026-05-07 23:10 18.40058 -69.59662 3009 ft 125 kts 85°
2026-05-07 23:10 18.40134 -69.58741 3009 ft 127 kts 85°
2026-05-07 23:10 18.40209 -69.57817 3008 ft 128 kts 85°
2026-05-07 23:10 18.40285 -69.56882 3009 ft 128 kts 85°
2026-05-07 23:11 18.40360 -69.55948 3009 ft 128 kts 85°
2026-05-07 23:11 18.40437 -69.55010 3009 ft 128 kts 86°
2026-05-07 23:11 18.40513 -69.54072 3009 ft 128 kts 86°
2026-05-07 23:11 18.40589 -69.53137 3008 ft 128 kts 85°
2026-05-07 23:12 18.40665 -69.52202 3008 ft 128 kts 85°
2026-05-07 23:12 18.40741 -69.51264 3008 ft 128 kts 85°
2026-05-07 23:12 18.40815 -69.50338 3008 ft 128 kts 85°
2026-05-07 23:12 18.40891 -69.49401 3007 ft 128 kts 86°
2026-05-07 23:13 18.40967 -69.48464 3007 ft 128 kts 86°
2026-05-07 23:13 18.41043 -69.47530 3007 ft 128 kts 85°
2026-05-07 23:13 18.41118 -69.46596 3007 ft 128 kts 85°
2026-05-07 23:13 18.41194 -69.45659 3006 ft 128 kts 85°
2026-05-07 23:14 18.41269 -69.44724 3006 ft 128 kts 85°
2026-05-07 23:14 18.41344 -69.43786 3006 ft 128 kts 86°
2026-05-07 23:14 18.41419 -69.42860 3006 ft 128 kts 86°
2026-05-07 23:14 18.41495 -69.41925 3006 ft 128 kts 86°
2026-05-07 23:15 18.41570 -69.40987 3006 ft 128 kts 85°
2026-05-07 23:15 18.41645 -69.40052 3005 ft 128 kts 85°
2026-05-07 23:15 18.41720 -69.39114 3005 ft 128 kts 85°
2026-05-07 23:15 18.41795 -69.38177 3004 ft 128 kts 86°
2026-05-07 23:16 18.41871 -69.37243 3004 ft 128 kts 86°
2026-05-07 23:16 18.41946 -69.36306 3004 ft 128 kts 86°
2026-05-07 23:16 18.42022 -69.35368 3003 ft 128 kts 85°
2026-05-07 23:16 18.42095 -69.34443 3004 ft 128 kts 85°
2026-05-07 23:17 18.42171 -69.33496 3003 ft 128 kts 85°
2026-05-07 23:17 18.42245 -69.32569 3003 ft 128 kts 86°
2026-05-07 23:17 18.42320 -69.31634 3003 ft 128 kts 86°
2026-05-07 23:17 18.42395 -69.30696 3003 ft 128 kts 86°
2026-05-07 23:18 18.42470 -69.29758 3002 ft 128 kts 85°
2026-05-07 23:18 18.42545 -69.28820 3002 ft 128 kts 85°
2026-05-07 23:18 18.42619 -69.27886 3002 ft 128 kts 85°
2026-05-07 23:18 18.42694 -69.26949 3002 ft 128 kts 86°
2026-05-07 23:19 18.42768 -69.26014 3002 ft 128 kts 86°
2026-05-07 23:19 18.42843 -69.25076 3001 ft 128 kts 86°
2026-05-07 23:19 18.42918 -69.24137 3001 ft 128 kts 86°
2026-05-07 23:19 18.42991 -69.23215 3001 ft 128 kts 85°
2026-05-07 23:20 18.43065 -69.22280 3001 ft 128 kts 85°
2026-05-07 23:20 18.43140 -69.21342 3000 ft 128 kts 86°
2026-05-07 23:20 18.43214 -69.20408 3000 ft 128 kts 86°
2026-05-07 23:20 18.43288 -69.19471 3000 ft 128 kts 86°
2026-05-07 23:21 18.43363 -69.18534 2999 ft 128 kts 86°
2026-05-07 23:21 18.43437 -69.17599 2999 ft 128 kts 86°
2026-05-07 23:21 18.43511 -69.16661 3000 ft 128 kts 85°
2026-05-07 23:21 18.43585 -69.15722 2999 ft 128 kts 85°
2026-05-07 23:22 18.43659 -69.14784 2999 ft 128 kts 86°
2026-05-07 23:22 18.43734 -69.13845 2999 ft 128 kts 86°
2026-05-07 23:22 18.43808 -69.12910 2999 ft 128 kts 86°
2026-05-07 23:22 18.43881 -69.11983 2998 ft 128 kts 86°
2026-05-07 23:23 18.43954 -69.11048 2997 ft 128 kts 85°
2026-05-07 23:23 18.44028 -69.10111 2997 ft 128 kts 85°
2026-05-07 23:23 18.44102 -69.09174 2997 ft 128 kts 86°
2026-05-07 23:23 18.44176 -69.08236 2997 ft 128 kts 86°
2026-05-07 23:24 18.44249 -69.07302 2997 ft 128 kts 86°
2026-05-07 23:24 18.44323 -69.06364 2996 ft 128 kts 86°
2026-05-07 23:24 18.44396 -69.05438 2996 ft 128 kts 86°
2026-05-07 23:24 18.44470 -69.04500 2996 ft 128 kts 86°
2026-05-07 23:25 18.44543 -69.03565 2996 ft 128 kts 86°
2026-05-07 23:25 18.44616 -69.02630 2995 ft 128 kts 86°
2026-05-07 23:25 18.44690 -69.01692 2995 ft 128 kts 86°
2026-05-07 23:25 18.44763 -69.00754 2995 ft 128 kts 86°
2026-05-07 23:26 18.44837 -68.99817 2995 ft 128 kts 86°
2026-05-07 23:26 18.44910 -68.98883 2994 ft 128 kts 86°
2026-05-07 23:26 18.44983 -68.97946 2994 ft 128 kts 85°
2026-05-07 23:26 18.45056 -68.97011 2994 ft 128 kts 86°
2026-05-07 23:27 18.45202 -68.95137 2994 ft 128 kts 86°
2026-05-07 23:27 18.45274 -68.94210 2993 ft 128 kts 86°
2026-05-07 23:27 18.45347 -68.93275 2993 ft 128 kts 86°
2026-05-07 23:28 18.45420 -68.92337 2993 ft 128 kts 86°
2026-05-07 23:28 18.45494 -68.91398 2991 ft 128 kts 86°
2026-05-07 23:28 18.46001 -68.91409 1207 ft 159 kts 296°
2026-05-07 23:28 18.45953 -68.92412 703 ft 124 kts 224°
2026-05-07 23:29 18.45372 -68.92129 269 ft 114 kts 98°
2026-05-07 23:29 18.45281 -68.91432 236 ft 77 kts 99°
2026-05-07 23:29 18.45215 -68.91017 234 ft 38 kts 100°
2026-05-07 23:29 18.45189 -68.90851 233 ft 10 kts 95°
2026-05-07 23:30 18.45189 -68.90838 233 ft 0 kts 90°